Regional Weather Roundup
Issued by NWS

Home | Current Version | Previous Version | Text Only | Print | Product List | Glossary Off
Versions: 1 2 3 4 5 6 7 8 9 10 11 12 13 14 15 16 17 18 19 20 21 22 23 24 25 26 27 28 29 30 31 32 33 34 35 36 37 38 39 40 41 42 43 44 45 46 47 48 49 50

000
ASUS43 KDTX 191210
RWRMI
MICHIGAN HOURLY REGIONAL WEATHER ROUNDUP
NATIONAL WEATHER SERVICE DETROIT/PONTIAC MI
800 AM EDT SUN APR 19 2015

NOTE: "FAIR" INDICATES FEW OR NO CLOUDS BELOW 12,000 FEET WITH NO
SIGNIFICANT WEATHER AND/OR OBSTRUCTION TO VISIBILITY.

MIZ047>049-052>055-059>063-066>070-074>076-081>083-191300-
SOUTHEAST LOWER MICHIGAN

CITY           SKY/WX    TMP DP  RH WIND       PRES   REMARKS
ADRIAN         MOSUNNY   45  32  60 E13       30.02F
6HR MIN TEMP:  43; 6HR MAX TEMP:  49;

ALMA           MOSUNNY   41  32  70 E8        30.07F
6HR MIN TEMP:  39; 6HR MAX TEMP:  42;

ANN ARBOR      SUNNY     47  28  47 E9        30.05R
BAD AXE        MOSUNNY   40  29  63 E6        30.14S
DETROIT CITY   MOSUNNY   47  31  53 E13       30.08F
6HR MIN TEMP:  43; 6HR MAX TEMP:  47;

DETROIT        CLOUDY    47  29  49 NE8       30.07R
6HR MIN TEMP:  46; 6HR MAX TEMP:  50;

FLINT          SUNNY     44  29  55 E9        30.09S
6HR MIN TEMP:  41; 6HR MAX TEMP:  45;

GROSSE ILE     MOSUNNY   46  30  53 NE12      30.05S
HILLSDALE      MOSUNNY   47  30  50 E13       29.99F
6HR MIN TEMP:  46; 6HR MAX TEMP:  52;

HOWELL         SUNNY     46  27  46 E9G17     30.04F
6HR MIN TEMP:  42; 6HR MAX TEMP:  47;


CITY           SKY/WX    TMP DP  RH WIND       PRES   REMARKS
JACKSON        MOSUNNY   47  28  47 E14       30.01F
6HR MIN TEMP:  45; 6HR MAX TEMP:  50;

LAMBERTVILLE   MOSUNNY   46  34  61 E10G17    30.02S
LANSING        MOSUNNY   46  29  51 E12       30.04F
6HR MIN TEMP:  39; 6HR MAX TEMP:  46;

LAPEER         NOT AVBL
MASON            N/A     47  28  47 E13       30.03F
MONROE         MOSUNNY   46  30  53 E8        30.02F
PONTIAC        MOSUNNY   44  28  53 E8        30.07F
6HR MIN TEMP:  42; 6HR MAX TEMP:  47;

PORT HOPE        N/A     40  33  76 E14       30.14R
6HR MIN TEMP:  40; 6HR MAX TEMP:  42;

PORT HURON     MOSUNNY   45  30  57 E14G22    30.11S
TRI CITIES     MOSUNNY   43  31  62 E8        30.10S
6HR MIN TEMP:  40; 6HR MAX TEMP:  43;

YPSILANTI      SUNNY     50  29  44 E14       30.06S
6HR MIN TEMP:  43; 6HR MAX TEMP:  50;

$$
MIZ043>046-050>051-056>058-064>065-071>073-077>080-191300-
SOUTHWEST LOWER MICHIGAN

CITY           SKY/WX    TMP DP  RH WIND       PRES   REMARKS
BATTLE CREEK   PTSUNNY   50  29  44 E12       29.99F
6HR MIN TEMP:  48; 6HR MAX TEMP:  51;

BENTON HARBOR  CLOUDY    51  30  44 E13       29.91F
6HR MIN TEMP:  51; 6HR MAX TEMP:  56;

BIG RAPIDS     MOSUNNY   44  30  58 E9G16     30.04F
6HR MIN TEMP:  42; 6HR MAX TEMP:  44;

COLDWATER        N/A     49  28  45 E13G20    29.97F
6HR MIN TEMP:  47; 6HR MAX TEMP:  52;

HOLLAND        PTSUNNY   49  31  49 E16       29.97F
6HR MIN TEMP:  44; 6HR MAX TEMP:  51;

GRAND RAPIDS   PTSUNNY   44  31  60 E13       30.00F
6HR MIN TEMP:  42; 6HR MAX TEMP:  47;

KALAMAZOO      PTSUNNY   51  28  41 E12       29.98F
6HR MIN TEMP:  49; 6HR MAX TEMP:  53;

MARSHALL       MOSUNNY   47  28  47 E6        29.99F
MUSKEGON       PTSUNNY   49  29  46 E20G29    29.97F
6HR MIN TEMP:  47; 6HR MAX TEMP:  49;

$$
MIZ016>042-191300-
NORTHERN LOWER MICHIGAN

CITY           SKY/WX    TMP DP  RH WIND       PRES   REMARKS
ALPENA         SUNNY     39  30  70 E15G22    30.18S
6HR MIN TEMP:  29; 6HR MAX TEMP:  41;

BEAVER ISLAND  SUNNY     39  30  69 E16G23    30.09S
6HR MIN TEMP:  36; 6HR MAX TEMP:  41;

BELLAIRE       MOSUNNY   46  23  41 CALM      30.07F
6HR MIN TEMP:  44; 6HR MAX TEMP:  48;

CADILLAC       PTSUNNY   42  26  53 E13G21    30.05S
CHARLEVOIX     MOSUNNY   42  28  56 E13       30.10S
6HR MIN TEMP:  42; 6HR MAX TEMP:  47;

FRANKFORT      PTSUNNY   50  18  28 E9        30.00S
GAYLORD        SUNNY     38  26  62 SE14G21   30.10F
6HR MIN TEMP:  36; 6HR MAX TEMP:  40;

GRAYLING       MOSUNNY   35  26  70 E8        30.11S
6HR MIN TEMP:  31; 6HR MAX TEMP:  35;

HARBOR SPRINGS SUNNY     39  28  64 E13G20    30.11F
HOUGHTON LAKE  MOSUNNY   41  26  55 E9        30.10R
6HR MIN TEMP:  32; 6HR MAX TEMP:  41;

MANISTEE       PTSUNNY   48  25  40 E16G25    30.00F
OSCODA         SUNNY     40  32  72 E12       30.16R
PELLSTON       SUNNY     39  28  64 E14       30.14F
6HR MIN TEMP:  31; 6HR MAX TEMP:  39;

TRAVERSE CITY  MOSUNNY   45  25  45 VRB3      30.04S
6HR MIN TEMP:  44; 6HR MAX TEMP:  47;

$$
MIZ007>008-015-191300-
EASTERN UPPER MICHIGAN

CITY           SKY/WX    TMP DP  RH WIND       PRES   REMARKS
KINROSS        SUNNY     36  28  75 E17       30.17S
6HR MIN TEMP:  34; 6HR MAX TEMP:  39;

MACKINAC ISLAN SUNNY     36  31  82 E14G26    30.15S
6HR MIN TEMP:  35; 6HR MAX TEMP:  41;

NEWBERRY       MOSUNNY   36  28  74 E20G26    30.11F
S. S. MARIE    SUNNY     37  25  61 E12G21    30.18S
6HR MIN TEMP:  36; 6HR MAX TEMP:  41;

$$
MIZ004>006-011>014-085-191300-
CENTRAL UPPER MICHIGAN

CITY           SKY/WX    TMP DP  RH WIND       PRES   REMARKS
MANISTIQUE     MOSUNNY   40  29  64 E14G23    30.07S
ESCANABA       MOSUNNY   41  28  60 E8        30.03S
6HR MIN TEMP:  36; 6HR MAX TEMP:  41;

MENOMINEE      MOCLDY    43  28  56 E9        29.99S
6HR MIN TEMP:  39; 6HR MAX TEMP:  43;

SAWYER-GWINN   CLEAR     39  25  56 SE14G20   30.00F
$$
MIZ001>003-009>011-084-191300-
WESTERN UPPER MICHIGAN

CITY           SKY/WX    TMP DP  RH WIND       PRES   REMARKS
IRON MOUNTAIN  MOCLDY    40  27  59 SE9       29.98S
6HR MIN TEMP:  38; 6HR MAX TEMP:  40;

HOUGHTON       CLOUDY    36  29  75 E12       29.97S
6HR MIN TEMP:  33; 6HR MAX TEMP:  37;

COPPER HARBOR    N/A     39  28  64 S13G24    29.99F
6HR MIN TEMP:  35; 6HR MAX TEMP:  40;

IRONWOOD       CLOUDY    43  34  70 SE16G24   29.81F
6HR MIN TEMP:  41; 6HR MAX TEMP:  52;

$$

ABBREVIATIONS USED IN REMARKS
   TC - TEMPERATURE IN CELSIUS
  WCI - WIND CHILL INDEX
   HX - HEAT INDEX
  VSB - VISIBILITY




USA.gov is the U.S. government's official web portal to all federal, state and local government web resources and services.